Weather History for KMRF - November, 2013

Change the Weather History Date:

Sunday, November 17, 2013

  Actual Average Record
Temperature  
Mean Temperature 56 °F -  
Max Temperature 69 °F 63 °F 75 °F (1998)
Min Temperature 42 °F 33 °F 19 °F (2014)
Degree Days  
Heating Degree Days 10    
Growing Degree Days 6 (Base 50)    
Moisture  
Dew Point 37 °F    
Average Humidity 51    
Maximum Humidity 81    
Minimum Humidity 28    
Precipitation  
Precipitation 0.00 in - - ()
Sea Level Pressure  
Sea Level Pressure 30.09 in    
Wind  
Wind Speed 10 mph (West)    
Max Wind Speed 22 mph    
Max Gust Speed 31 mph    
Visibility 10 miles    
Events      
Averages and records for this station are not official NWS values.
T = Trace of Precipitation, MM = Missing Value Source: NWS Daily Summary

Daily Weather History Graph

Daily Weather History Graph

Search for Another Location

Airport or City:

Trip Planner

Search our weather history database for the weather conditions in past years. The results will help you decide how hot, cold, wet, or windy it might be!

Date:

Astronomy

Nov. 17, 2013 Rise Set
Actual Time 7:23 AM CST 5:58 PM CST
Civil Twilight 6:58 AM CST 6:23 PM CST
Nautical Twilight 6:29 AM CST 6:52 PM CST
Astronomical Twilight 6:00 AM CST 7:21 PM CST
Moon 6:16 PM CST (11/17) 7:20 AM CST (11/17)
Length of Visible Light 11h 25m
Length of Day
10h 34m
Full, 100% of the Moon is Illuminated
Nov 17
Full
Nov 25
Last Quarter
Dec 2
New
Dec 9
First Quarter
Dec 17
Full

Hourly Weather History & Observations

Time (CST) Temp. Windchill Dew Point Humidity Pressure Visibility Wind Dir Wind Speed Gust Speed Precip Events Conditions
12:15 AM 55.4 °F - 44.6 °F 67% 29.97 in 10.0 mi WSW 6.9 mph - N/A   Partly Cloudy
12:35 AM 55.4 °F - 42.8 °F 63% 29.97 in 10.0 mi West 9.2 mph - N/A   Clear
12:55 AM 51.8 °F - 42.8 °F 71% 29.97 in 10.0 mi West 11.5 mph - N/A   Clear
1:15 AM 51.8 °F - 41.0 °F 67% 29.97 in 10.0 mi WSW 12.7 mph - N/A   Clear
1:35 AM 51.8 °F - 41.0 °F 67% 29.97 in 10.0 mi WSW 15.0 mph - N/A   Clear
1:55 AM 53.6 °F - 41.0 °F 62% 29.97 in 10.0 mi West 11.5 mph - N/A   Clear
2:15 AM 51.8 °F - 39.2 °F 62% 29.98 in 10.0 mi West 15.0 mph - N/A   Clear
2:35 AM 55.4 °F - 39.2 °F 54% 29.96 in 10.0 mi WSW 15.0 mph - N/A   Clear
2:55 AM 55.4 °F - 39.2 °F 54% 29.98 in 10.0 mi WSW 8.1 mph - N/A   Clear
3:15 AM 50.0 °F - 37.4 °F 62% 29.99 in 10.0 mi North 8.1 mph - N/A   Clear
3:35 AM 55.4 °F - 39.2 °F 54% 30.00 in 10.0 mi West 8.1 mph - N/A   Clear
3:55 AM 53.6 °F - 39.2 °F 58% 30.00 in 10.0 mi West 5.8 mph - N/A   Clear
4:15 AM 50.0 °F - 39.2 °F 66% 29.99 in 10.0 mi SW 5.8 mph - N/A   Clear
4:35 AM 44.6 °F 42.2 °F 37.4 °F 76% 30.00 in 10.0 mi West 4.6 mph - N/A   Clear
4:55 AM 44.6 °F 41.4 °F 37.4 °F 76% 30.01 in 10.0 mi NNE 5.8 mph - N/A   Clear
5:15 AM 42.8 °F 38.0 °F 35.6 °F 76% 30.00 in 10.0 mi West 8.1 mph - N/A   Clear
5:35 AM 42.8 °F 37.5 °F 35.6 °F 76% 30.00 in 10.0 mi WSW 9.2 mph - N/A   Clear
5:55 AM 42.8 °F 37.5 °F 37.4 °F 81% 30.00 in 10.0 mi WSW 9.2 mph - N/A   Clear
6:15 AM 46.4 °F 44.3 °F 39.2 °F 76% 30.01 in 10.0 mi West 4.6 mph - N/A   Clear
6:35 AM 46.4 °F 42.9 °F 37.4 °F 71% 30.01 in 10.0 mi West 6.9 mph - N/A   Clear
6:55 AM 44.6 °F 38.4 °F 37.4 °F 76% 30.03 in 10.0 mi WSW 12.7 mph - N/A   Clear
7:15 AM 44.6 °F 39.2 °F 37.4 °F 76% 30.04 in 10.0 mi WSW 10.4 mph - N/A   Clear
7:35 AM 42.8 °F 37.5 °F 37.4 °F 81% 30.04 in 10.0 mi SW 9.2 mph - N/A   Clear
7:55 AM 46.4 °F 43.5 °F 37.4 °F 71% 30.06 in 10.0 mi SW 5.8 mph - N/A   Clear
8:15 AM 48.2 °F - 39.2 °F 71% 30.08 in 10.0 mi SSW 5.8 mph - N/A   Clear
8:35 AM 48.2 °F - 39.2 °F 71% 30.09 in 10.0 mi SW 5.8 mph - N/A   Clear
8:55 AM 53.6 °F - 39.2 °F 58% 30.10 in 10.0 mi WSW 10.4 mph - N/A   Clear
9:15 AM 57.2 °F - 39.2 °F 51% 30.10 in 10.0 mi SW 11.5 mph - N/A   Clear
9:35 AM 60.8 °F - 39.2 °F 45% 30.11 in 10.0 mi WSW 11.5 mph - N/A   Clear
9:55 AM 62.6 °F - 41.0 °F 45% 30.12 in 10.0 mi West 15.0 mph 21.9 mph N/A   Clear
10:15 AM 64.4 °F - 39.2 °F 40% 30.13 in 10.0 mi WSW 18.4 mph 25.3 mph N/A   Clear
10:35 AM 64.4 °F - 39.2 °F 40% 30.14 in 10.0 mi WSW 12.7 mph 21.9 mph N/A   Clear
10:55 AM 64.4 °F - 39.2 °F 40% 30.14 in 10.0 mi West 19.6 mph 25.3 mph N/A   Clear
11:15 AM 66.2 °F - 37.4 °F 35% 30.14 in 10.0 mi West 20.7 mph 26.5 mph N/A   Clear
11:35 AM 66.2 °F - 39.2 °F 37% 30.13 in 10.0 mi West 18.4 mph 28.8 mph N/A   Clear
11:55 AM 66.2 °F - 37.4 °F 35% 30.14 in 10.0 mi West 17.3 mph 26.5 mph N/A   Clear
12:15 PM 68.0 °F - 37.4 °F 33% 30.14 in 10.0 mi West 18.4 mph 25.3 mph N/A   Clear
12:35 PM 68.0 °F - 35.6 °F 30% 30.13 in 10.0 mi West 19.6 mph 31.1 mph N/A   Clear
12:55 PM 68.0 °F - 35.6 °F 30% 30.12 in 10.0 mi West 20.7 mph 25.3 mph N/A   Clear
1:15 PM 68.0 °F - 33.8 °F 28% 30.12 in 10.0 mi West 21.9 mph 28.8 mph N/A   Clear
1:35 PM 68.0 °F - 33.8 °F 28% 30.11 in 10.0 mi WNW 18.4 mph 26.5 mph N/A   Clear
1:55 PM 69.8 °F - 35.6 °F 28% 30.11 in 10.0 mi West 15.0 mph 23.0 mph N/A   Clear
2:15 PM 69.8 °F - 35.6 °F 28% 30.10 in 10.0 mi West 19.6 mph 23.0 mph N/A   Clear
2:35 PM 69.8 °F - 35.6 °F 28% 30.10 in 10.0 mi West 15.0 mph 23.0 mph N/A   Clear
2:55 PM 69.8 °F - 35.6 °F 28% 30.10 in 10.0 mi WNW 12.7 mph 21.9 mph N/A   Clear
3:15 PM 69.8 °F - 35.6 °F 28% 30.10 in 10.0 mi West 11.5 mph 17.3 mph N/A   Clear
3:35 PM 69.8 °F - 35.6 °F 28% 30.10 in 10.0 mi WNW 15.0 mph 18.4 mph N/A   Clear
3:55 PM 69.8 °F - 35.6 °F 28% 30.10 in 10.0 mi West 15.0 mph - N/A   Clear
4:15 PM 69.8 °F - 35.6 °F 28% 30.10 in 10.0 mi WNW 10.4 mph - N/A   Clear
4:35 PM 69.8 °F - 35.6 °F 28% 30.10 in 10.0 mi West 9.2 mph - N/A   Clear
4:55 PM 68.0 °F - 35.6 °F 30% 30.10 in 10.0 mi West 6.9 mph - N/A   Clear
5:15 PM 66.2 °F - 35.6 °F 32% 30.11 in 10.0 mi West 9.2 mph - N/A   Clear
5:35 PM 66.2 °F - 35.6 °F 32% 30.11 in 10.0 mi West 9.2 mph - N/A   Clear
5:55 PM 62.6 °F - 33.8 °F 34% 30.12 in 10.0 mi NW 6.9 mph - N/A   Clear
6:15 PM 57.2 °F - 32.0 °F 38% 30.13 in 10.0 mi WNW 8.1 mph - N/A   Clear
6:35 PM 55.4 °F - 32.0 °F 41% 30.13 in 10.0 mi NW 9.2 mph - N/A   Clear
6:55 PM 53.6 °F - 32.0 °F 44% 30.14 in 10.0 mi WNW 8.1 mph - N/A   Clear
7:15 PM 51.8 °F - 30.2 °F 44% 30.15 in 10.0 mi WNW 3.5 mph - N/A   Clear
7:35 PM 48.2 °F - 32.0 °F 54% 30.15 in 10.0 mi NW 6.9 mph - N/A   Clear
7:55 PM 50.0 °F - 32.0 °F 50% 30.15 in 10.0 mi WNW 5.8 mph - N/A   Clear
8:15 PM 48.2 °F - 33.8 °F 58% 30.16 in 10.0 mi Calm Calm - N/A   Clear
8:35 PM 48.2 °F - 33.8 °F 58% 30.16 in 10.0 mi Calm Calm - N/A   Clear
8:55 PM 48.2 °F - 32.0 °F 54% 30.17 in 10.0 mi ENE 5.8 mph - N/A   Clear
9:15 PM 48.2 °F - 33.8 °F 58% 30.17 in 10.0 mi NNE 3.5 mph - N/A   Clear
9:35 PM 48.2 °F - 33.8 °F 58% 30.17 in 10.0 mi Calm Calm - N/A   Clear
9:55 PM 51.8 °F - 33.8 °F 50% 30.18 in 10.0 mi South 3.5 mph - N/A   Clear
10:15 PM 48.2 °F - 33.8 °F 58% 30.18 in 10.0 mi Calm Calm - N/A   Clear
10:35 PM 48.2 °F - 33.8 °F 58% 30.18 in 10.0 mi West 4.6 mph - N/A   Clear
10:55 PM 48.2 °F - 33.8 °F 58% 30.18 in 10.0 mi WSW 5.8 mph - N/A   Clear
11:15 PM 48.2 °F - 33.8 °F 58% 30.18 in 10.0 mi WSW 6.9 mph - N/A   Clear
11:35 PM 48.2 °F - 33.8 °F 58% 30.18 in 10.0 mi West 9.2 mph - N/A   Clear
11:55 PM 51.8 °F - 33.8 °F 50% 30.18 in 10.0 mi West 8.1 mph - N/A   Clear